Volver al catálogo

COSMOS 983

ActivoMilitarLEO
NORAD 10590·PAYLOAD·🇷🇺 Russia

Lanzado Jan 10, 1978 desde Plesetsk Cosmodrome

Loading…

Próximos Pases (próximas 24 horas)

TLE

ActualizadoSource: Space-Track

Época: Sep 14, 2026, 14:18 UTC

1 10590U 78005H   26257.59644110 -.00000022  00000-0 -48475-4 0  9995
2 10590  74.0291 223.9401 0047399 250.7366 108.8549 12.41512471206081

Sigue COSMOS 983 en tiempo real con AllMySat

Download on the App Store